Time,TemperatureF,DewpointF,PressureIn,WindDirection,WindDirectionDegrees,WindSpeedMPH,WindSpeedGustMPH,Humidity,HourlyPrecipIn,Conditions,Clouds,dailyrainin,SoftwareType,DateUTC
2013-04-24 00:01:00,47.3,32.8,30.26,NE,36,0.0,4.0,57,0.00,,,0.00,Weather View 32 v70,2013-04-24 07:01:00,
2013-04-24 00:06:00,47.1,32.6,30.26,NE,36,0.0,4.0,57,0.00,,,0.00,Weather View 32 v70,2013-04-24 07:06:00,
2013-04-24 00:11:00,47.0,32.5,30.27,NE,36,0.0,4.0,57,0.00,,,0.00,Weather View 32 v70,2013-04-24 07:11:00,
2013-04-24 00:16:00,46.7,32.7,30.27,NE,36,0.0,4.0,58,0.00,,,0.00,Weather View 32 v70,2013-04-24 07:16:00,
2013-04-24 00:21:00,46.4,32.8,30.27,NE,36,0.0,4.0,59,0.00,,,0.00,Weather View 32 v70,2013-04-24 07:21:00,
2013-04-24 00:26:00,46.1,33.0,30.27,NE,36,0.0,4.0,60,0.00,,,0.00,Weather View 32 v70,2013-04-24 07:26:00,
2013-04-24 00:31:00,45.7,32.6,30.28,NE,36,0.0,4.0,60,0.00,,,0.00,Weather View 32 v70,2013-04-24 07:31:00,
2013-04-24 00:36:00,45.4,32.3,30.28,NE,36,0.0,1.0,60,0.00,,,0.00,Weather View 32 v70,2013-04-24 07:36:00,
2013-04-24 00:41:00,44.9,32.2,30.28,NE,36,0.0,2.0,61,0.00,,,0.00,Weather View 32 v70,2013-04-24 07:41:00,
2013-04-24 00:46:00,44.5,32.3,30.28,NE,36,0.0,2.0,62,0.00,,,0.00,Weather View 32 v70,2013-04-24 07:46:00,
2013-04-24 00:51:00,44.2,32.0,30.29,NE,36,0.0,2.0,62,0.00,,,0.00,Weather View 32 v70,2013-04-24 07:51:00,
2013-04-24 00:56:00,43.8,32.4,30.29,NE,36,0.0,2.0,64,0.00,,,0.00,Weather View 32 v70,2013-04-24 07:56:00,
2013-04-24 01:01:00,43.3,32.3,30.29,NE,37,0.0,2.0,65,0.00,,,0.00,Weather View 32 v70,2013-04-24 08:01:00,
2013-04-24 01:06:00,42.9,32.3,30.29,NE,37,0.0,2.0,66,0.00,,,0.00,Weather View 32 v70,2013-04-24 08:06:00,
2013-04-24 01:11:00,42.5,32.3,30.29,NE,37,0.0,2.0,67,0.00,,,0.00,Weather View 32 v70,2013-04-24 08:11:00,
2013-04-24 01:16:00,41.9,32.1,30.29,NE,37,0.0,2.0,68,0.00,,,0.00,Weather View 32 v70,2013-04-24 08:16:00,
2013-04-24 01:21:00,41.6,32.2,30.29,NE,38,3.0,3.0,69,0.00,,,0.00,Weather View 32 v70,2013-04-24 08:21:00,
2013-04-24 01:26:00,41.3,32.2,30.29,NE,40,0.0,3.0,70,0.00,,,0.00,Weather View 32 v70,2013-04-24 08:26:00,
2013-04-24 01:31:00,41.1,32.1,30.29,NE,40,0.0,3.0,70,0.00,,,0.00,Weather View 32 v70,2013-04-24 08:31:00,
2013-04-24 01:36:00,40.9,32.2,30.29,NE,40,0.0,3.0,71,0.00,,,0.00,Weather View 32 v70,2013-04-24 08:36:00,
2013-04-24 01:41:00,40.5,31.8,30.29,NE,40,0.0,3.0,71,0.00,,,0.00,Weather View 32 v70,2013-04-24 08:41:00,
2013-04-24 01:46:00,40.2,31.9,30.29,NE,40,0.0,3.0,72,0.00,,,0.00,Weather View 32 v70,2013-04-24 08:46:00,
2013-04-24 01:51:00,40.1,32.1,30.29,NE,40,2.0,3.0,73,0.00,,,0.00,Weather View 32 v70,2013-04-24 08:51:00,
2013-04-24 01:56:00,39.9,31.9,30.29,NE,40,0.0,3.0,73,0.00,,,0.00,Weather View 32 v70,2013-04-24 08:56:00,
2013-04-24 02:01:00,40.1,31.8,30.29,NE,40,1.0,3.0,72,0.00,,,0.00,Weather View 32 v70,2013-04-24 09:01:00,
2013-04-24 02:06:00,39.8,31.8,30.29,NE,40,0.0,3.0,73,0.00,,,0.00,Weather View 32 v70,2013-04-24 09:06:00,
2013-04-24 02:11:00,39.3,31.4,30.30,NE,40,0.0,3.0,73,0.00,,,0.00,Weather View 32 v70,2013-04-24 09:11:00,
2013-04-24 02:16:00,38.9,31.3,30.30,NE,40,0.0,3.0,74,0.00,,,0.00,Weather View 32 v70,2013-04-24 09:16:00,
2013-04-24 02:21:00,38.6,31.4,30.30,NE,40,1.0,3.0,75,0.00,,,0.00,Weather View 32 v70,2013-04-24 09:21:00,
2013-04-24 02:26:00,38.5,31.3,30.30,NE,40,0.0,3.0,75,0.00,,,0.00,Weather View 32 v70,2013-04-24 09:26:00,
2013-04-24 02:31:00,38.3,31.4,30.30,NE,40,0.0,3.0,76,0.00,,,0.00,Weather View 32 v70,2013-04-24 09:31:00,
2013-04-24 02:36:00,38.3,31.4,30.30,ENE,58,0.0,3.0,76,0.00,,,0.00,Weather View 32 v70,2013-04-24 09:36:00,
2013-04-24 02:41:00,38.3,31.4,30.30,ENE,58,0.0,3.0,76,0.00,,,0.00,Weather View 32 v70,2013-04-24 09:41:00,
2013-04-24 02:46:00,38.3,31.4,30.30,ENE,63,0.0,3.0,76,0.00,,,0.00,Weather View 32 v70,2013-04-24 09:46:00,
2013-04-24 02:51:00,38.2,31.3,30.30,ENE,63,0.0,3.0,76,0.00,,,0.00,Weather View 32 v70,2013-04-24 09:51:00,
2013-04-24 02:56:00,37.6,30.7,30.30,ENE,63,0.0,3.0,76,0.00,,,0.00,Weather View 32 v70,2013-04-24 09:56:00,
2013-04-24 03:01:00,37.3,30.7,30.30,ENE,63,0.0,3.0,77,0.00,,,0.00,Weather View 32 v70,2013-04-24 10:01:00,
2013-04-24 03:06:00,37.3,30.7,30.30,ENE,63,0.0,3.0,77,0.00,,,0.00,Weather View 32 v70,2013-04-24 10:06:00,
2013-04-24 03:11:00,37.6,31.0,30.30,ENE,63,0.0,3.0,77,0.00,,,0.00,Weather View 32 v70,2013-04-24 10:11:00,
2013-04-24 03:16:00,37.5,30.9,30.30,ENE,63,0.0,3.0,77,0.00,,,0.00,Weather View 32 v70,2013-04-24 10:16:00,
2013-04-24 03:21:00,37.2,30.6,30.30,ENE,63,0.0,3.0,77,0.00,,,0.00,Weather View 32 v70,2013-04-24 10:21:00,
2013-04-24 03:26:00,37.0,30.5,30.30,ENE,63,0.0,1.0,77,0.00,,,0.00,Weather View 32 v70,2013-04-24 10:26:00,
2013-04-24 03:31:00,36.9,30.7,30.30,ENE,63,0.0,1.0,78,0.00,,,0.00,Weather View 32 v70,2013-04-24 10:31:00,
2013-04-24 03:36:00,36.8,30.6,30.30,ENE,63,0.0,1.0,78,0.00,,,0.00,Weather View 32 v70,2013-04-24 10:36:00,
2013-04-24 03:41:00,36.8,30.6,30.31,ENE,63,0.0,1.0,78,0.00,,,0.00,Weather View 32 v70,2013-04-24 10:41:00,
2013-04-24 03:46:00,36.8,30.6,30.31,ENE,63,0.0,1.0,78,0.00,,,0.00,Weather View 32 v70,2013-04-24 10:46:00,
2013-04-24 03:51:00,36.9,30.7,30.31,ENE,63,0.0,1.0,78,0.00,,,0.00,Weather View 32 v70,2013-04-24 10:51:00,
2013-04-24 03:56:00,36.9,30.4,30.31,ENE,64,0.0,1.0,77,0.00,,,0.00,Weather View 32 v70,2013-04-24 10:56:00,
2013-04-24 04:01:00,37.0,30.5,30.31,ENE,64,0.0,1.0,77,0.00,,,0.00,Weather View 32 v70,2013-04-24 11:01:00,
2013-04-24 04:06:00,37.2,30.6,30.31,ENE,64,0.0,1.0,77,0.00,,,0.00,Weather View 32 v70,2013-04-24 11:06:00,
2013-04-24 04:11:00,37.2,30.3,30.31,ENE,64,0.0,1.0,76,0.00,,,0.00,Weather View 32 v70,2013-04-24 11:11:00,
2013-04-24 04:16:00,37.3,30.4,30.31,ENE,64,0.0,1.0,76,0.00,,,0.00,Weather View 32 v70,2013-04-24 11:16:00,
2013-04-24 04:21:00,37.3,30.4,30.32,ENE,64,0.0,1.0,76,0.00,,,0.00,Weather View 32 v70,2013-04-24 11:21:00,
2013-04-24 04:26:00,37.3,30.4,30.32,ENE,64,0.0,1.0,76,0.00,,,0.00,Weather View 32 v70,2013-04-24 11:26:00,
2013-04-24 04:31:00,37.3,30.4,30.32,ENE,64,0.0,1.0,76,0.00,,,0.00,Weather View 32 v70,2013-04-24 11:31:00,
2013-04-24 04:36:00,37.2,30.3,30.32,ENE,64,0.0,1.0,76,0.00,,,0.00,Weather View 32 v70,2013-04-24 11:36:00,
2013-04-24 04:41:00,36.9,30.0,30.32,ENE,64,0.0,1.0,76,0.00,,,0.00,Weather View 32 v70,2013-04-24 11:41:00,
2013-04-24 04:45:00,36.5,30.0,30.32,ENE,64,0.0,1.0,77,0.00,,,0.00,Weather View 32 v70,2013-04-24 11:45:00,
2013-04-24 04:50:00,36.0,29.8,30.32,ENE,64,0.0,1.0,78,0.00,,,0.00,Weather View 32 v70,2013-04-24 11:50:00,
2013-04-24 04:55:00,35.8,29.6,30.32,ENE,64,0.0,1.0,78,0.00,,,0.00,Weather View 32 v70,2013-04-24 11:55:00,
2013-04-24 05:00:00,35.6,29.7,30.32,ENE,64,0.0,1.0,79,0.00,,,0.00,Weather View 32 v70,2013-04-24 12:00:00,
2013-04-24 05:05:00,35.5,29.6,30.32,ENE,64,0.0,1.0,79,0.00,,,0.00,Weather View 32 v70,2013-04-24 12:05:00,
2013-04-24 05:10:00,35.3,29.7,30.32,ENE,64,0.0,1.0,80,0.00,,,0.00,Weather View 32 v70,2013-04-24 12:10:00,
2013-04-24 05:15:00,35.3,29.7,30.32,ENE,64,0.0,1.0,80,0.00,,,0.00,Weather View 32 v70,2013-04-24 12:15:00,
2013-04-24 05:20:00,35.2,29.6,30.32,ENE,64,0.0,1.0,80,0.00,,,0.00,Weather View 32 v70,2013-04-24 12:20:00,
2013-04-24 05:25:00,34.9,29.4,30.32,ENE,64,0.0,1.0,80,0.00,,,0.00,Weather View 32 v70,2013-04-24 12:25:00,
2013-04-24 05:30:00,34.7,29.5,30.32,ENE,64,0.0,1.0,81,0.00,,,0.00,Weather View 32 v70,2013-04-24 12:30:00,
2013-04-24 05:35:00,34.6,29.4,30.32,ENE,64,0.0,1.0,81,0.00,,,0.00,Weather View 32 v70,2013-04-24 12:35:00,
2013-04-24 05:40:00,34.6,29.4,30.32,ENE,64,0.0,1.0,81,0.00,,,0.00,Weather View 32 v70,2013-04-24 12:40:00,
2013-04-24 05:45:00,34.4,29.2,30.32,ENE,64,0.0,1.0,81,0.00,,,0.00,Weather View 32 v70,2013-04-24 12:45:00,
2013-04-24 05:50:00,34.3,29.1,30.32,ENE,64,0.0,1.0,81,0.00,,,0.00,Weather View 32 v70,2013-04-24 12:50:00,
2013-04-24 05:51:00,34.3,29.1,30.32,ENE,64,0.0,1.0,81,0.00,,,0.00,Weather View 32 v70,2013-04-24 12:51:00,
2013-04-24 06:03:00,34.0,28.8,30.32,ENE,64,0.0,1.0,81,0.00,,,0.00,Weather View 32 v70,2013-04-24 13:03:00,
2013-04-24 06:08:00,34.0,29.1,30.32,ENE,64,0.0,1.0,82,0.00,,,0.00,Weather View 32 v70,2013-04-24 13:08:00,
2013-04-24 06:13:00,34.0,29.1,30.32,ENE,64,0.0,1.0,82,0.00,,,0.00,Weather View 32 v70,2013-04-24 13:13:00,
2013-04-24 06:18:00,33.8,28.9,30.33,ENE,64,0.0,1.0,82,0.00,,,0.00,Weather View 32 v70,2013-04-24 13:18:00,
2013-04-24 06:23:00,33.8,28.9,30.33,ENE,64,0.0,1.0,82,0.00,,,0.00,Weather View 32 v70,2013-04-24 13:23:00,
2013-04-24 06:28:00,33.8,28.9,30.33,ENE,64,0.0,1.0,82,0.00,,,0.00,Weather View 32 v70,2013-04-24 13:28:00,
2013-04-24 06:33:00,33.8,28.9,30.33,ENE,64,0.0,1.0,82,0.00,,,0.00,Weather View 32 v70,2013-04-24 13:33:00,
2013-04-24 06:38:00,33.8,28.9,30.33,ENE,64,0.0,1.0,82,0.00,,,0.00,Weather View 32 v70,2013-04-24 13:38:00,
2013-04-24 06:43:00,33.8,29.2,30.33,ENE,64,0.0,1.0,83,0.00,,,0.00,Weather View 32 v70,2013-04-24 13:43:00,
2013-04-24 06:48:00,34.1,29.5,30.33,ENE,64,0.0,1.0,83,0.00,,,0.00,Weather View 32 v70,2013-04-24 13:48:00,
2013-04-24 06:53:00,34.3,29.7,30.33,ENE,65,0.0,1.0,83,0.00,,,0.00,Weather View 32 v70,2013-04-24 13:53:00,
2013-04-24 06:58:00,34.6,29.7,30.33,ENE,68,0.0,1.0,82,0.00,,,0.00,Weather View 32 v70,2013-04-24 13:58:00,
2013-04-24 07:03:00,34.9,30.0,30.33,ENE,68,1.0,1.0,82,0.00,,,0.00,Weather View 32 v70,2013-04-24 14:03:00,
2013-04-24 07:08:00,35.5,30.5,30.33,ENE,69,0.0,2.0,82,0.00,,,0.00,Weather View 32 v70,2013-04-24 14:08:00,
2013-04-24 07:13:00,35.9,30.6,30.33,ENE,69,0.0,2.0,81,0.00,,,0.00,Weather View 32 v70,2013-04-24 14:13:00,
2013-04-24 07:18:00,36.5,31.2,30.33,ENE,69,0.0,2.0,81,0.00,,,0.00,Weather View 32 v70,2013-04-24 14:18:00,
2013-04-24 07:23:00,37.2,31.3,30.33,ENE,69,0.0,2.0,79,0.00,,,0.00,Weather View 32 v70,2013-04-24 14:23:00,
2013-04-24 07:28:00,37.9,31.3,30.33,ENE,70,1.0,3.0,77,0.00,,,0.00,Weather View 32 v70,2013-04-24 14:28:00,
2013-04-24 07:33:00,38.3,31.1,30.34,ENE,70,1.0,4.0,75,0.00,,,0.00,Weather View 32 v70,2013-04-24 14:33:00,
2013-04-24 07:38:00,38.8,31.2,30.33,ENE,70,1.0,4.0,74,0.00,,,0.00,Weather View 32 v70,2013-04-24 14:38:00,
2013-04-24 07:43:00,39.3,31.4,30.34,ENE,70,0.0,4.0,73,0.00,,,0.00,Weather View 32 v70,2013-04-24 14:43:00,
2013-04-24 07:48:00,40.1,31.8,30.34,ENE,70,0.0,4.0,72,0.00,,,0.00,Weather View 32 v70,2013-04-24 14:48:00,
2013-04-24 07:53:00,40.6,31.9,30.33,ENE,70,1.0,4.0,71,0.00,,,0.00,Weather View 32 v70,2013-04-24 14:53:00,
2013-04-24 07:58:00,41.1,32.4,30.33,ENE,70,2.0,4.0,71,0.00,,,0.00,Weather View 32 v70,2013-04-24 14:58:00,
2013-04-24 08:03:00,41.8,32.4,30.33,ENE,70,0.0,4.0,69,0.00,,,0.00,Weather View 32 v70,2013-04-24 15:03:00,
2013-04-24 08:09:00,42.9,31.9,30.33,ENE,70,0.0,4.0,65,0.00,,,0.00,Weather View 32 v70,2013-04-24 15:09:00,
2013-04-24 08:14:00,43.6,31.8,30.33,ENE,70,1.0,4.0,63,0.00,,,0.00,Weather View 32 v70,2013-04-24 15:14:00,
2013-04-24 08:19:00,44.1,31.9,30.33,ENE,70,0.0,4.0,62,0.00,,,0.00,Weather View 32 v70,2013-04-24 15:19:00,
2013-04-24 08:24:00,44.5,32.3,30.33,ENE,70,2.0,4.0,62,0.00,,,0.00,Weather View 32 v70,2013-04-24 15:24:00,
2013-04-24 08:29:00,45.1,32.8,30.33,ENE,70,1.0,4.0,62,0.00,,,0.00,Weather View 32 v70,2013-04-24 15:29:00,
2013-04-24 08:34:00,45.5,33.2,30.33,ENE,70,1.0,4.0,62,0.00,,,0.00,Weather View 32 v70,2013-04-24 15:34:00,
2013-04-24 08:39:00,46.0,33.3,30.33,ENE,70,2.0,4.0,61,0.00,,,0.00,Weather View 32 v70,2013-04-24 15:39:00,
2013-04-24 08:44:00,46.2,33.1,30.33,ENE,70,0.0,4.0,60,0.00,,,0.00,Weather View 32 v70,2013-04-24 15:44:00,
2013-04-24 08:49:00,46.8,33.2,30.32,ENE,70,1.0,4.0,59,0.00,,,0.00,Weather View 32 v70,2013-04-24 15:49:00,
2013-04-24 08:54:00,47.3,33.2,30.32,ENE,70,3.0,4.0,58,0.00,,,0.00,Weather View 32 v70,2013-04-24 15:54:00,
2013-04-24 08:59:00,47.7,33.2,30.32,ENE,70,1.0,4.0,57,0.00,,,0.00,Weather View 32 v70,2013-04-24 15:59:00,
2013-04-24 09:04:00,48.2,33.2,30.32,ENE,70,0.0,4.0,56,0.00,,,0.00,Weather View 32 v70,2013-04-24 16:04:00,
2013-04-24 09:09:00,48.8,33.3,30.32,ENE,70,0.0,4.0,55,0.00,,,0.00,Weather View 32 v70,2013-04-24 16:09:00,
2013-04-24 09:14:00,49.4,33.9,30.31,ENE,70,1.0,4.0,55,0.00,,,0.00,Weather View 32 v70,2013-04-24 16:14:00,
2013-04-24 09:19:00,49.6,33.1,30.31,ENE,70,0.0,4.0,53,0.00,,,0.00,Weather View 32 v70,2013-04-24 16:19:00,
2013-04-24 09:24:00,49.9,33.4,30.31,ENE,70,2.0,4.0,53,0.00,,,0.00,Weather View 32 v70,2013-04-24 16:24:00,
2013-04-24 09:29:00,50.4,33.4,30.31,ENE,70,2.0,4.0,52,0.00,,,0.00,Weather View 32 v70,2013-04-24 16:29:00,
2013-04-24 09:34:00,50.7,33.7,30.31,ENE,69,2.0,4.0,52,0.00,,,0.00,Weather View 32 v70,2013-04-24 16:34:00,
2013-04-24 09:39:00,50.8,32.8,30.30,ENE,69,1.0,5.0,50,0.00,,,0.00,Weather View 32 v70,2013-04-24 16:39:00,
2013-04-24 09:44:00,51.1,32.6,30.30,ENE,69,2.0,5.0,49,0.00,,,0.00,Weather View 32 v70,2013-04-24 16:44:00,
2013-04-24 09:49:00,51.4,32.8,30.30,ENE,69,2.0,5.0,49,0.00,,,0.00,Weather View 32 v70,2013-04-24 16:49:00,
2013-04-24 09:54:00,51.7,32.6,30.30,ENE,63,3.0,7.0,48,0.00,,,0.00,Weather View 32 v70,2013-04-24 16:54:00,
2013-04-24 09:59:00,51.7,32.6,30.30,ENE,65,2.0,7.0,48,0.00,,,0.00,Weather View 32 v70,2013-04-24 16:59:00,
2013-04-24 10:04:00,52.0,31.8,30.30,ENE,64,3.0,7.0,46,0.00,,,0.00,Weather View 32 v70,2013-04-24 17:04:00,
2013-04-24 10:09:00,51.9,31.7,30.30,ENE,75,4.0,8.0,46,0.00,,,0.00,Weather View 32 v70,2013-04-24 17:09:00,
2013-04-24 10:14:00,52.0,32.4,30.29,NE,51,5.0,8.0,47,0.00,,,0.00,Weather View 32 v70,2013-04-24 17:14:00,
2013-04-24 10:19:00,52.2,31.5,30.29,NE,55,5.0,8.0,45,0.00,,,0.00,Weather View 32 v70,2013-04-24 17:19:00,
2013-04-24 10:24:00,52.3,32.6,30.29,ENE,78,2.0,8.0,47,0.00,,,0.00,Weather View 32 v70,2013-04-24 17:24:00,
2013-04-24 10:29:00,52.5,30.6,30.29,East,80,6.0,8.0,43,0.00,,,0.00,Weather View 32 v70,2013-04-24 17:29:00,
2013-04-24 10:34:00,53.1,30.6,30.29,East,83,3.0,8.0,42,0.00,,,0.00,Weather View 32 v70,2013-04-24 17:34:00,
2013-04-24 10:39:00,53.5,30.3,30.28,ENE,64,7.0,8.0,41,0.00,,,0.00,Weather View 32 v70,2013-04-24 17:39:00,
2013-04-24 10:44:00,53.9,31.3,30.28,NE,49,5.0,8.0,42,0.00,,,0.00,Weather View 32 v70,2013-04-24 17:44:00,
2013-04-24 10:49:00,54.7,31.4,30.28,NE,56,3.0,8.0,41,0.00,,,0.00,Weather View 32 v70,2013-04-24 17:49:00,
2013-04-24 10:54:00,55.3,31.3,30.28,ENE,70,5.0,9.0,40,0.00,,,0.00,Weather View 32 v70,2013-04-24 17:54:00,
2013-04-24 10:59:00,55.7,31.1,30.28,NE,56,6.0,9.0,39,0.00,,,0.00,Weather View 32 v70,2013-04-24 17:59:00,
2013-04-24 11:04:00,56.0,32.0,30.27,NE,43,3.0,9.0,40,0.00,,,0.00,Weather View 32 v70,2013-04-24 18:04:00,
2013-04-24 11:09:00,56.3,32.9,30.27,NE,40,4.0,9.0,41,0.00,,,0.00,Weather View 32 v70,2013-04-24 18:09:00,
2013-04-24 11:14:00,56.5,32.4,30.27,NE,40,3.0,9.0,40,0.00,,,0.00,Weather View 32 v70,2013-04-24 18:14:00,
2013-04-24 11:19:00,57.5,33.3,30.27,NNE,13,3.0,9.0,40,0.00,,,0.00,Weather View 32 v70,2013-04-24 18:19:00,
2013-04-24 11:24:00,58.6,32.4,30.26,NNE,25,1.0,9.0,37,0.00,,,0.00,Weather View 32 v70,2013-04-24 18:24:00,
2013-04-24 11:29:00,59.3,31.6,30.26,NE,42,2.0,9.0,35,0.00,,,0.00,Weather View 32 v70,2013-04-24 18:29:00,
2013-04-24 11:34:00,59.9,30.7,30.26,NE,50,4.0,9.0,33,0.00,,,0.00,Weather View 32 v70,2013-04-24 18:34:00,
2013-04-24 11:39:00,60.9,30.8,30.25,ENE,76,4.0,11.0,32,0.00,,,0.00,Weather View 32 v70,2013-04-24 18:39:00,
2013-04-24 11:44:00,61.8,31.6,30.25,ENE,59,2.0,11.0,32,0.00,,,0.00,Weather View 32 v70,2013-04-24 18:44:00,
2013-04-24 11:49:00,62.7,32.3,30.25,ENE,74,2.0,11.0,32,0.00,,,0.00,Weather View 32 v70,2013-04-24 18:49:00,
2013-04-24 11:54:00,63.4,29.7,30.24,NE,49,7.0,11.0,28,0.00,,,0.00,Weather View 32 v70,2013-04-24 18:54:00,
2013-04-24 11:59:00,63.9,30.1,30.24,NE,50,7.0,11.0,28,0.00,,,0.00,Weather View 32 v70,2013-04-24 18:59:00,
2013-04-24 12:04:00,63.9,28.3,30.24,NE,49,4.0,11.0,26,0.00,,,0.00,Weather View 32 v70,2013-04-24 19:04:00,
2013-04-24 12:09:00,64.3,29.5,30.23,NE,53,3.0,11.0,27,0.00,,,0.00,Weather View 32 v70,2013-04-24 19:09:00,
2013-04-24 12:14:00,64.8,29.0,30.23,NE,42,5.0,11.0,26,0.00,,,0.00,Weather View 32 v70,2013-04-24 19:14:00,
2013-04-24 12:19:00,66.0,28.1,30.22,ENE,69,1.0,11.0,24,0.00,,,0.00,Weather View 32 v70,2013-04-24 19:19:00,
2013-04-24 12:24:00,66.9,25.6,30.22,ENE,58,4.0,11.0,21,0.00,,,0.00,Weather View 32 v70,2013-04-24 19:24:00,
2013-04-24 12:29:00,67.1,26.9,30.22,ENE,76,4.0,11.0,22,0.00,,,0.00,Weather View 32 v70,2013-04-24 19:29:00,
2013-04-24 12:34:00,67.1,24.6,30.22,East,88,1.0,12.0,20,0.00,,,0.00,Weather View 32 v70,2013-04-24 19:34:00,
2013-04-24 12:39:00,67.1,25.8,30.22,East,81,8.0,13.0,21,0.00,,,0.00,Weather View 32 v70,2013-04-24 19:39:00,
2013-04-24 12:44:00,66.9,24.4,30.21,ESE,105,0.0,14.0,20,0.00,,,0.00,Weather View 32 v70,2013-04-24 19:44:00,
2013-04-24 12:49:00,67.1,24.6,30.21,NE,46,5.0,14.0,20,0.00,,,0.00,Weather View 32 v70,2013-04-24 19:49:00,
2013-04-24 12:54:00,67.3,25.9,30.20,NE,51,0.0,14.0,21,0.00,,,0.00,Weather View 32 v70,2013-04-24 19:54:00,
2013-04-24 12:59:00,67.8,25.2,30.20,ENE,61,7.0,14.0,20,0.00,,,0.00,Weather View 32 v70,2013-04-24 19:59:00,
2013-04-24 13:04:00,67.3,25.9,30.20,East,88,5.0,14.0,21,0.00,,,0.00,Weather View 32 v70,2013-04-24 20:04:00,
2013-04-24 13:09:00,67.4,26.0,30.19,ENE,65,3.0,14.0,21,0.00,,,0.00,Weather View 32 v70,2013-04-24 20:09:00,
2013-04-24 13:14:00,67.8,26.4,30.19,NE,43,5.0,14.0,21,0.00,,,0.00,Weather View 32 v70,2013-04-24 20:14:00,
2013-04-24 13:19:00,68.1,27.7,30.18,East,80,7.0,14.0,22,0.00,,,0.00,Weather View 32 v70,2013-04-24 20:19:00,
2013-04-24 13:24:00,68.3,27.9,30.18,ENE,61,4.0,14.0,22,0.00,,,0.00,Weather View 32 v70,2013-04-24 20:24:00,
2013-04-24 13:29:00,68.3,26.8,30.17,ENE,59,4.0,14.0,21,0.00,,,0.00,Weather View 32 v70,2013-04-24 20:29:00,
2013-04-24 13:34:00,68.4,29.1,30.17,East,80,2.0,14.0,23,0.00,,,0.00,Weather View 32 v70,2013-04-24 20:34:00,
2013-04-24 13:39:00,68.6,27.0,30.17,ESE,115,2.0,14.0,21,0.00,,,0.00,Weather View 32 v70,2013-04-24 20:39:00,
2013-04-24 13:44:00,68.8,27.2,30.17,ENE,74,7.0,14.0,21,0.00,,,0.00,Weather View 32 v70,2013-04-24 20:44:00,
2013-04-24 13:49:00,69.3,28.7,30.17,ENE,69,5.0,13.0,22,0.00,,,0.00,Weather View 32 v70,2013-04-24 20:49:00,
2013-04-24 13:54:00,69.6,27.8,30.16,East,83,5.0,13.0,21,0.00,,,0.00,Weather View 32 v70,2013-04-24 20:54:00,
2013-04-24 13:59:00,69.8,28.0,30.16,NE,48,1.0,13.0,21,0.00,,,0.00,Weather View 32 v70,2013-04-24 20:59:00,
2013-04-24 14:04:00,69.8,28.0,30.16,NE,44,4.0,12.0,21,0.00,,,0.00,Weather View 32 v70,2013-04-24 21:04:00,
2013-04-24 14:09:00,69.6,27.8,30.15,ENE,67,4.0,12.0,21,0.00,,,0.00,Weather View 32 v70,2013-04-24 21:09:00,
2013-04-24 14:14:00,69.4,28.8,30.15,NE,53,1.0,12.0,22,0.00,,,0.00,Weather View 32 v70,2013-04-24 21:14:00,
2013-04-24 14:19:00,70.1,30.5,30.15,NNE,26,1.0,12.0,23,0.00,,,0.00,Weather View 32 v70,2013-04-24 21:19:00,
2013-04-24 14:24:00,70.1,28.3,30.15,East,83,7.0,12.0,21,0.00,,,0.00,Weather View 32 v70,2013-04-24 21:24:00,
2013-04-24 14:29:00,70.1,29.4,30.15,NE,47,2.0,12.0,22,0.00,,,0.00,Weather View 32 v70,2013-04-24 21:29:00,
2013-04-24 14:34:00,70.3,27.2,30.14,NE,53,7.0,11.0,20,0.00,,,0.00,Weather View 32 v70,2013-04-24 21:34:00,
2013-04-24 14:39:00,70.3,27.2,30.14,NE,40,4.0,11.0,20,0.00,,,0.00,Weather View 32 v70,2013-04-24 21:39:00,
2013-04-24 14:44:00,70.6,29.8,30.14,ENE,61,2.0,11.0,22,0.00,,,0.00,Weather View 32 v70,2013-04-24 21:44:00,
2013-04-24 14:49:00,70.8,26.4,30.13,East,84,0.0,11.0,19,0.00,,,0.00,Weather View 32 v70,2013-04-24 21:49:00,
2013-04-24 14:54:00,70.8,27.7,30.13,East,79,3.0,11.0,20,0.00,,,0.00,Weather View 32 v70,2013-04-24 21:54:00,
2013-04-24 14:59:00,70.9,27.7,30.13,NE,55,4.0,11.0,20,0.00,,,0.00,Weather View 32 v70,2013-04-24 21:59:00,
2013-04-24 15:04:00,71.1,26.7,30.13,ENE,68,0.0,11.0,19,0.00,,,0.00,Weather View 32 v70,2013-04-24 22:04:00,
2013-04-24 15:09:00,71.1,29.1,30.12,East,80,3.0,11.0,21,0.00,,,0.00,Weather View 32 v70,2013-04-24 22:09:00,
2013-04-24 15:14:00,71.1,26.7,30.12,East,85,0.0,11.0,19,0.00,,,0.00,Weather View 32 v70,2013-04-24 22:14:00,
2013-04-24 15:19:00,70.9,26.5,30.11,ENE,57,3.0,11.0,19,0.00,,,0.00,Weather View 32 v70,2013-04-24 22:19:00,
2013-04-24 15:24:00,71.3,26.8,30.12,ENE,61,0.0,9.0,19,0.00,,,0.00,Weather View 32 v70,2013-04-24 22:24:00,
2013-04-24 15:29:00,72.0,28.6,30.11,ENE,61,0.0,9.0,20,0.00,,,0.00,Weather View 32 v70,2013-04-24 22:29:00,
2013-04-24 15:34:00,72.5,27.8,30.11,ENE,67,4.0,9.0,19,0.00,,,0.00,Weather View 32 v70,2013-04-24 22:34:00,
2013-04-24 15:39:00,72.5,26.5,30.10,NE,46,2.0,9.0,18,0.00,,,0.00,Weather View 32 v70,2013-04-24 22:39:00,
2013-04-24 15:44:00,73.0,29.5,30.10,NE,38,4.0,9.0,20,0.00,,,0.00,Weather View 32 v70,2013-04-24 22:44:00,
2013-04-24 15:49:00,73.2,27.1,30.10,NE,43,0.0,9.0,18,0.00,,,0.00,Weather View 32 v70,2013-04-24 22:49:00,
2013-04-24 15:54:00,73.0,26.9,30.09,NE,43,0.0,9.0,18,0.00,,,0.00,Weather View 32 v70,2013-04-24 22:54:00,
2013-04-24 15:59:00,72.7,28.0,30.09,NE,44,0.0,9.0,19,0.00,,,0.00,Weather View 32 v70,2013-04-24 22:59:00,
2013-04-24 16:04:00,73.0,29.5,30.09,NE,44,3.0,9.0,20,0.00,,,0.00,Weather View 32 v70,2013-04-24 23:04:00,
2013-04-24 16:09:00,73.0,29.5,30.08,NE,44,0.0,9.0,20,0.00,,,0.00,Weather View 32 v70,2013-04-24 23:09:00,
2013-04-24 16:14:00,73.2,28.4,30.07,NE,44,1.0,9.0,19,0.00,,,0.00,Weather View 32 v70,2013-04-24 23:14:00,
2013-04-24 16:19:00,73.2,28.4,30.07,NE,44,3.0,7.0,19,0.00,,,0.00,Weather View 32 v70,2013-04-24 23:19:00,
2013-04-24 16:24:00,72.8,25.3,30.07,NE,46,0.0,7.0,17,0.00,,,0.00,Weather View 32 v70,2013-04-24 23:24:00,
2013-04-24 16:29:00,72.5,25.1,30.06,NE,46,0.0,7.0,17,0.00,,,0.00,Weather View 32 v70,2013-04-24 23:29:00,
2013-04-24 16:34:00,73.0,25.5,30.06,NE,46,0.0,7.0,17,0.00,,,0.00,Weather View 32 v70,2013-04-24 23:34:00,
2013-04-24 16:39:00,73.7,26.1,30.06,NE,46,0.0,7.0,17,0.00,,,0.00,Weather View 32 v70,2013-04-24 23:39:00,
2013-04-24 16:44:00,73.9,27.6,30.06,NNE,23,3.0,7.0,18,0.00,,,0.00,Weather View 32 v70,2013-04-24 23:44:00,
2013-04-24 16:49:00,74.4,26.6,30.05,NNE,23,0.0,7.0,17,0.00,,,0.00,Weather View 32 v70,2013-04-24 23:49:00,
2013-04-24 16:54:00,74.9,27.0,30.05,NNE,23,0.0,7.0,17,0.00,,,0.00,Weather View 32 v70,2013-04-24 23:54:00,
2013-04-24 16:59:00,74.9,28.4,30.04,NNE,19,3.0,5.0,18,0.00,,,0.00,Weather View 32 v70,2013-04-24 23:59:00,
2013-04-24 17:04:00,75.1,28.6,30.04,NNE,20,0.0,5.0,18,0.00,,,0.00,Weather View 32 v70,2013-04-25 00:04:00,
2013-04-24 17:09:00,75.3,27.4,30.04,NNE,20,0.0,5.0,17,0.00,,,0.00,Weather View 32 v70,2013-04-25 00:09:00,
2013-04-24 17:14:00,75.4,27.4,30.03,NNE,20,3.0,5.0,17,0.00,,,0.00,Weather View 32 v70,2013-04-25 00:14:00,
2013-04-24 17:19:00,74.9,29.8,30.03,NNE,20,0.0,5.0,19,0.00,,,0.00,Weather View 32 v70,2013-04-25 00:19:00,
2013-04-24 17:24:00,74.6,26.8,30.03,North,360,3.0,5.0,17,0.00,,,0.00,Weather View 32 v70,2013-04-25 00:24:00,
2013-04-24 17:29:00,74.0,26.3,30.03,North,355,3.0,5.0,17,0.00,,,0.00,Weather View 32 v70,2013-04-25 00:29:00,
2013-04-24 17:34:00,74.0,26.3,30.03,North,355,0.0,5.0,17,0.00,,,0.00,Weather View 32 v70,2013-04-25 00:34:00,
2013-04-24 17:39:00,74.4,26.6,30.03,North,355,0.0,5.0,17,0.00,,,0.00,Weather View 32 v70,2013-04-25 00:39:00,
2013-04-24 17:44:00,74.6,28.2,30.02,North,355,0.0,5.0,18,0.00,,,0.00,Weather View 32 v70,2013-04-25 00:44:00,
2013-04-24 17:49:00,74.4,26.6,30.02,North,355,0.0,5.0,17,0.00,,,0.00,Weather View 32 v70,2013-04-25 00:49:00,
2013-04-24 17:54:00,74.4,28.0,30.02,North,355,0.0,5.0,18,0.00,,,0.00,Weather View 32 v70,2013-04-25 00:54:00,
2013-04-24 17:59:00,74.2,27.9,30.02,North,355,0.0,5.0,18,0.00,,,0.00,Weather View 32 v70,2013-04-25 00:59:00,
2013-04-24 18:04:00,74.0,27.7,30.01,North,355,0.0,5.0,18,0.00,,,0.00,Weather View 32 v70,2013-04-25 01:04:00,
2013-04-24 18:09:00,73.7,27.5,30.01,North,355,0.0,5.0,18,0.00,,,0.00,Weather View 32 v70,2013-04-25 01:09:00,
2013-04-24 18:14:00,73.7,26.1,30.01,North,355,0.0,5.0,17,0.00,,,0.00,Weather View 32 v70,2013-04-25 01:14:00,
2013-04-24 18:19:00,73.7,28.8,30.01,North,355,0.0,5.0,19,0.00,,,0.00,Weather View 32 v70,2013-04-25 01:19:00,
2013-04-24 18:24:00,73.7,28.8,30.00,North,355,0.0,5.0,19,0.00,,,0.00,Weather View 32 v70,2013-04-25 01:24:00,
2013-04-24 18:29:00,74.0,29.0,30.00,North,355,0.0,3.0,19,0.00,,,0.00,Weather View 32 v70,2013-04-25 01:29:00,
2013-04-24 18:34:00,74.2,30.5,30.00,North,355,0.0,0.0,20,0.00,,,0.00,Weather View 32 v70,2013-04-25 01:34:00,
2013-04-24 18:39:00,74.2,30.5,30.00,North,355,0.0,0.0,20,0.00,,,0.00,Weather View 32 v70,2013-04-25 01:39:00,
2013-04-24 18:44:00,73.7,31.2,30.00,North,355,0.0,1.0,21,0.00,,,0.00,Weather View 32 v70,2013-04-25 01:44:00,
2013-04-24 18:49:00,73.2,29.6,29.99,North,355,0.0,1.0,20,0.00,,,0.00,Weather View 32 v70,2013-04-25 01:49:00,
2013-04-24 18:54:00,72.7,29.2,29.99,North,355,0.0,1.0,20,0.00,,,0.00,Weather View 32 v70,2013-04-25 01:54:00,
2013-04-24 18:59:00,72.7,29.2,29.99,North,355,0.0,1.0,20,0.00,,,0.00,Weather View 32 v70,2013-04-25 01:59:00,
2013-04-24 19:04:00,72.3,27.6,29.99,North,355,0.0,1.0,19,0.00,,,0.00,Weather View 32 v70,2013-04-25 02:04:00,
2013-04-24 19:09:00,71.8,28.5,29.99,North,355,0.0,1.0,20,0.00,,,0.00,Weather View 32 v70,2013-04-25 02:09:00,
2013-04-24 19:14:00,70.8,28.8,29.98,North,355,0.0,1.0,21,0.00,,,0.00,Weather View 32 v70,2013-04-25 02:14:00,
2013-04-24 19:19:00,70.1,30.5,29.98,North,355,0.0,1.0,23,0.00,,,0.00,Weather View 32 v70,2013-04-25 02:19:00,
2013-04-24 19:24:00,68.9,32.5,29.98,North,355,0.0,1.0,26,0.00,,,0.00,Weather View 32 v70,2013-04-25 02:24:00,
2013-04-24 19:29:00,68.1,32.8,29.98,North,355,0.0,1.0,27,0.00,,,0.00,Weather View 32 v70,2013-04-25 02:29:00,
2013-04-24 19:34:00,67.6,33.3,29.98,North,355,0.0,1.0,28,0.00,,,0.00,Weather View 32 v70,2013-04-25 02:34:00,
2013-04-24 19:39:00,67.3,33.9,29.98,North,355,0.0,1.0,29,0.00,,,0.00,Weather View 32 v70,2013-04-25 02:39:00,
2013-04-24 19:44:00,66.4,34.0,29.98,North,355,0.0,0.0,30,0.00,,,0.00,Weather View 32 v70,2013-04-25 02:44:00,
2013-04-24 19:49:00,65.6,34.1,29.97,North,355,0.0,0.0,31,0.00,,,0.00,Weather View 32 v70,2013-04-25 02:49:00,
2013-04-24 19:54:00,65.0,35.9,29.98,North,355,0.0,0.0,34,0.00,,,0.00,Weather View 32 v70,2013-04-25 02:54:00,
2013-04-24 19:59:00,64.2,35.9,29.98,North,355,0.0,0.0,35,0.00,,,0.00,Weather View 32 v70,2013-04-25 02:59:00,
2013-04-24 20:04:00,63.9,35.6,29.98,North,355,0.0,0.0,35,0.00,,,0.00,Weather View 32 v70,2013-04-25 03:04:00,
2013-04-24 20:09:00,63.5,36.0,29.98,North,355,0.0,0.0,36,0.00,,,0.00,Weather View 32 v70,2013-04-25 03:09:00,
2013-04-24 20:14:00,62.9,36.8,29.98,North,355,0.0,0.0,38,0.00,,,0.00,Weather View 32 v70,2013-04-25 03:14:00,
2013-04-24 20:19:00,62.1,37.4,29.98,North,355,0.0,0.0,40,0.00,,,0.00,Weather View 32 v70,2013-04-25 03:19:00,
2013-04-24 20:24:00,61.5,38.1,29.98,North,355,0.0,0.0,42,0.00,,,0.00,Weather View 32 v70,2013-04-25 03:24:00,
2013-04-24 20:29:00,60.9,39.4,29.98,North,355,0.0,0.0,45,0.00,,,0.00,Weather View 32 v70,2013-04-25 03:29:00,
2013-04-24 20:34:00,60.1,39.2,29.99,North,355,0.0,0.0,46,0.00,,,0.00,Weather View 32 v70,2013-04-25 03:34:00,
2013-04-24 20:39:00,59.3,37.9,29.99,North,355,0.0,0.0,45,0.00,,,0.00,Weather View 32 v70,2013-04-25 03:39:00,
2013-04-24 20:44:00,59.2,38.4,29.99,North,355,0.0,0.0,46,0.00,,,0.00,Weather View 32 v70,2013-04-25 03:44:00,
2013-04-24 20:49:00,58.7,37.9,29.99,North,355,0.0,0.0,46,0.00,,,0.00,Weather View 32 v70,2013-04-25 03:49:00,
2013-04-24 20:54:00,57.8,38.2,29.99,North,355,0.0,0.0,48,0.00,,,0.00,Weather View 32 v70,2013-04-25 03:54:00,
2013-04-24 20:59:00,57.3,38.8,29.99,North,355,0.0,0.0,50,0.00,,,0.00,Weather View 32 v70,2013-04-25 03:59:00,
2013-04-24 21:01:00,57.2,38.7,29.99,North,355,0.0,0.0,50,0.00,,,0.00,Weather View 32 v70,2013-04-25 04:01:00,
2013-04-24 21:06:00,56.9,38.4,29.99,North,355,0.0,0.0,50,0.00,,,0.00,Weather View 32 v70,2013-04-25 04:06:00,
2013-04-24 21:11:00,56.6,38.1,29.99,North,355,0.0,0.0,50,0.00,,,0.00,Weather View 32 v70,2013-04-25 04:11:00,
2013-04-24 21:16:00,57.0,38.0,29.99,North,355,0.0,1.0,49,0.00,,,0.00,Weather View 32 v70,2013-04-25 04:16:00,
2013-04-24 21:21:00,57.0,38.5,29.99,North,355,0.0,1.0,50,0.00,,,0.00,Weather View 32 v70,2013-04-25 04:21:00,
2013-04-24 21:26:00,57.0,37.5,29.99,North,355,0.0,1.0,48,0.00,,,0.00,Weather View 32 v70,2013-04-25 04:26:00,
2013-04-24 21:31:00,56.7,37.7,29.99,North,355,0.0,1.0,49,0.00,,,0.00,Weather View 32 v70,2013-04-25 04:31:00,
2013-04-24 21:36:00,56.0,36.0,29.99,North,355,0.0,1.0,47,0.00,,,0.00,Weather View 32 v70,2013-04-25 04:36:00,
2013-04-24 21:41:00,55.9,35.4,29.99,North,355,0.0,1.0,46,0.00,,,0.00,Weather View 32 v70,2013-04-25 04:41:00,
2013-04-24 21:46:00,56.5,35.4,30.00,North,355,0.0,1.0,45,0.00,,,0.00,Weather View 32 v70,2013-04-25 04:46:00,
2013-04-24 21:51:00,56.9,35.7,30.00,North,355,0.0,1.0,45,0.00,,,0.00,Weather View 32 v70,2013-04-25 04:51:00,
2013-04-24 21:56:00,56.9,36.3,30.00,North,355,0.0,1.0,46,0.00,,,0.00,Weather View 32 v70,2013-04-25 04:56:00,
2013-04-24 22:01:00,56.5,37.5,30.00,North,355,0.0,1.0,49,0.00,,,0.00,Weather View 32 v70,2013-04-25 05:01:00,
2013-04-24 22:06:00,56.0,37.6,30.00,North,355,0.0,1.0,50,0.00,,,0.00,Weather View 32 v70,2013-04-25 05:06:00,
2013-04-24 22:11:00,55.4,37.5,30.00,North,355,0.0,1.0,51,0.00,,,0.00,Weather View 32 v70,2013-04-25 05:11:00,
2013-04-24 22:16:00,55.1,37.3,30.00,North,355,0.0,0.0,51,0.00,,,0.00,Weather View 32 v70,2013-04-25 05:16:00,
2013-04-24 22:21:00,55.0,37.2,30.00,North,355,0.0,0.0,51,0.00,,,0.00,Weather View 32 v70,2013-04-25 05:21:00,
2013-04-24 22:26:00,54.8,37.5,30.00,North,355,0.0,0.0,52,0.00,,,0.00,Weather View 32 v70,2013-04-25 05:26:00,
2013-04-24 22:31:00,54.5,37.2,30.00,North,355,0.0,0.0,52,0.00,,,0.00,Weather View 32 v70,2013-04-25 05:31:00,
2013-04-24 22:36:00,54.4,37.6,30.00,North,355,1.0,0.0,53,0.00,,,0.00,Weather View 32 v70,2013-04-25 05:36:00,
2013-04-24 22:41:00,54.2,37.9,30.00,North,355,0.0,2.0,54,0.00,,,0.00,Weather View 32 v70,2013-04-25 05:41:00,
2013-04-24 22:46:00,54.1,37.8,30.00,North,355,0.0,2.0,54,0.00,,,0.00,Weather View 32 v70,2013-04-25 05:46:00,
2013-04-24 22:51:00,53.8,37.5,30.00,North,355,0.0,2.0,54,0.00,,,0.00,Weather View 32 v70,2013-04-25 05:51:00,
2013-04-24 22:56:00,53.5,37.7,30.00,North,355,0.0,2.0,55,0.00,,,0.00,Weather View 32 v70,2013-04-25 05:56:00,
2013-04-24 23:01:00,53.1,37.8,30.00,North,355,0.0,2.0,56,0.00,,,0.00,Weather View 32 v70,2013-04-25 06:01:00,
2013-04-24 23:06:00,52.8,38.0,30.00,North,355,0.0,2.0,57,0.00,,,0.00,Weather View 32 v70,2013-04-25 06:06:00,
2013-04-24 23:11:00,52.5,37.7,30.00,North,355,1.0,3.0,57,0.00,,,0.00,Weather View 32 v70,2013-04-25 06:11:00,
2013-04-24 23:16:00,52.3,37.9,30.00,North,355,0.0,3.0,58,0.00,,,0.00,Weather View 32 v70,2013-04-25 06:16:00,
2013-04-24 23:21:00,52.0,37.7,29.99,North,355,2.0,3.0,58,0.00,,,0.00,Weather View 32 v70,2013-04-25 06:21:00,
2013-04-24 23:26:00,51.9,37.6,29.99,North,360,2.0,5.0,58,0.00,,,0.00,Weather View 32 v70,2013-04-25 06:26:00,
2013-04-24 23:31:00,52.0,37.7,29.99,North,360,2.0,5.0,58,0.00,,,0.00,Weather View 32 v70,2013-04-25 06:31:00,
2013-04-24 23:36:00,52.2,37.8,29.99,North,360,0.0,5.0,58,0.00,,,0.00,Weather View 32 v70,2013-04-25 06:36:00,
2013-04-24 23:41:00,51.7,37.4,29.99,North,360,1.0,5.0,58,0.00,,,0.00,Weather View 32 v70,2013-04-25 06:41:00,
2013-04-24 23:46:00,51.3,37.9,29.99,North,355,0.0,5.0,60,0.00,,,0.00,Weather View 32 v70,2013-04-25 06:46:00,
2013-04-24 23:51:00,51.0,37.6,29.99,North,355,0.0,5.0,60,0.00,,,0.00,Weather View 32 v70,2013-04-25 06:51:00,
2013-04-24 23:56:00,50.8,37.8,29.99,North,355,0.0,5.0,61,0.00,,,0.00,Weather View 32 v70,2013-04-25 06:56:00,